When you browse on this site, cookies collect data to enhance your experience and personalize the content and advertising you see.
Visit our Privacy Policy to learn more. By continuing to use the site, you agree to this use of cookies and data.
  • In Sweden
  • List of Countries
  • For 7 days
  • Water Temperature
  • Weather Map
  • Weather Widgets
  • user-avatar
    Login

    Hourly Weather Liverpool

    Today, 18 January, Saturday

    Time Temperature Precipitation Wind Pressure Humidity
    00:00 +3°C° 0 mm 5 mps 763 mmHg 78%
    01:00 +3°C° 0 mm 5 mps 763 mmHg 77%
    02:00 +3°C° 0 mm 6 mps 764 mmHg 77%
    03:00 +2°C° 0 mm 6 mps 765 mmHg 77%
    04:00 +2°C° 0 mm 5 mps 765 mmHg 78%
    05:00 +2°C° 0 mm 5 mps 766 mmHg 79%
    06:00 +3°C° 0 mm 4 mps 766 mmHg 82%
    07:00 +1°C° 0 mm 4 mps 767 mmHg 83%
    08:00 +1°C° 0 mm 4 mps 768 mmHg 83%
    09:00 +1°C° 0 mm 4 mps 768 mmHg 84%
    10:00 +3°C° 0 mm 4 mps 769 mmHg 79%
    11:00 +3°C° 0 mm 5 mps 769 mmHg 74%
    12:00 +6°C° 0 mm 4 mps 770 mmHg 72%
    13:00 +6°C° 0 mm 4 mps 770 mmHg 72%
    14:00 +5°C° 0 mm 4 mps 770 mmHg 73%
    15:00 +5°C° 0 mm 4 mps 771 mmHg 74%
    16:00 +5°C° 0 mm 4 mps 772 mmHg 77%
    17:00 +4°C° 0 mm 4 mps 772 mmHg 80%
    18:00 +4°C° 0 mm 4 mps 773 mmHg 83%
    19:00 +3°C° 0 mm 4 mps 774 mmHg 84%
    20:00 +3°C° 0 mm 4 mps 774 mmHg 86%
    21:00 +3°C° 0 mm 4 mps 775 mmHg 87%
    22:00 +3°C° 0 mm 3 mps 776 mmHg 88%
    23:00 +3°C° 0 mm 3 mps 777 mmHg 88%

    Tomorrow, 19 January, Sunday

    Time Temperature Precipitation Wind Pressure Humidity
    00:00 +3°C° 0 mm 3 mps 777 mmHg 89%
    01:00 +2°C° 0 mm 3 mps 778 mmHg 88%
    02:00 +3°C° 0 mm 2 mps 778 mmHg 88%
    03:00 +3°C° 0 mm 2 mps 779 mmHg 88%
    04:00 +3°C° 0 mm 2 mps 779 mmHg 88%
    05:00 +3°C° 0 mm 1 mps 780 mmHg 87%
    06:00 +3°C° 0 mm 1 mps 780 mmHg 87%
    07:00 +3°C° 0 mm 1 mps 781 mmHg 87%
    08:00 +3°C° 0 mm 1 mps 781 mmHg 87%
    09:00 +3°C° 0 mm 1 mps 782 mmHg 88%
    10:00 +5°C° 0 mm 1 mps 782 mmHg 84%
    11:00 +6°C° 0 mm 1 mps 782 mmHg 81%
    12:00 +7°C° 0 mm 1 mps 783 mmHg 77%
    13:00 +7°C° 0 mm 1 mps 783 mmHg 78%
    14:00 +7°C° 0 mm 1 mps 783 mmHg 79%
    15:00 +7°C° 0 mm 1 mps 783 mmHg 80%
    16:00 +6°C° 0 mm 1 mps 783 mmHg 82%
    17:00 +4°C° 0 mm 2 mps 783 mmHg 84%
    18:00 +3°C° 0 mm 2 mps 784 mmHg 86%
    19:00 +3°C° 0 mm 2 mps 784 mmHg 86%
    20:00 +3°C° 0 mm 2 mps 784 mmHg 85%
    21:00 +3°C° 0 mm 2 mps 784 mmHg 85%
    22:00 +3°C° 0 mm 2 mps 784 mmHg 84%
    23:00 +3°C° 0 mm 2 mps 785 mmHg 84%

    Day after tomorrow, 20 January, Monday

    Time Temperature Precipitation Wind Pressure Humidity
    00:00 +2°C° 0 mm 2 mps 785 mmHg 84%
    01:00 +2°C° 0 mm 2 mps 785 mmHg 85%
    02:00 +2°C° 0 mm 2 mps 784 mmHg 86%
    03:00 +2°C° 0 mm 2 mps 784 mmHg 87%
    04:00 +2°C° 0 mm 2 mps 784 mmHg 88%
    05:00 +2°C° 0 mm 2 mps 784 mmHg 89%
    06:00 +2°C° 0 mm 2 mps 784 mmHg 90%
    07:00 +2°C° 0 mm 2 mps 784 mmHg 90%
    08:00 +2°C° 0 mm 2 mps 784 mmHg 90%
    09:00 +2°C° 0 mm 2 mps 784 mmHg 90%
    10:00 +4°C° 0 mm 2 mps 784 mmHg 86%
    11:00 +5°C° 0 mm 2 mps 784 mmHg 81%
    12:00 +6°C° 0 mm 2 mps 784 mmHg 76%
    13:00 +6°C° 0 mm 2 mps 783 mmHg 77%
    14:00 +6°C° 0 mm 2 mps 783 mmHg 78%
    15:00 +7°C° 0 mm 1 mps 783 mmHg 79%
    16:00 +6°C° 0 mm 1 mps 782 mmHg 82%
    17:00 +4°C° 0 mm 2 mps 782 mmHg 85%
    18:00 +3°C° 0 mm 2 mps 782 mmHg 88%
    19:00 +3°C° 0 mm 2 mps 782 mmHg 89%
    20:00 +3°C° 0 mm 2 mps 782 mmHg 89%
    21:00 +3°C° 0 mm 2 mps 782 mmHg 90%
    22:00 +3°C° 0 mm 2 mps 781 mmHg 90%
    23:00 +2°C° 0 mm 3 mps 781 mmHg 90%

    21 January, Tuesday

    Time Temperature Precipitation Wind Pressure Humidity
    00:00 +2°C° 0 mm 3 mps 781 mmHg 90%
    01:00 +2°C° 0 mm 3 mps 781 mmHg 90%
    02:00 +2°C° 0 mm 3 mps 780 mmHg 90%
    03:00 +2°C° 0 mm 3 mps 780 mmHg 91%
    04:00 +2°C° 0 mm 3 mps 780 mmHg 91%
    05:00 +3°C° 0 mm 3 mps 780 mmHg 91%
    06:00 +4°C° 0 mm 2 mps 780 mmHg 90%
    07:00 +4°C° 0 mm 2 mps 780 mmHg 90%
    08:00 +4°C° 0 mm 2 mps 780 mmHg 90%
    09:00 +6°C° 0 mm 1 mps 780 mmHg 89%
    10:00 +5°C° 0 mm 2 mps 780 mmHg 86%
    11:00 +6°C° 0 mm 2 mps 780 mmHg 84%
    12:00 +7°C° 0 mm 2 mps 780 mmHg 81%
    13:00 +7°C° 0 mm 2 mps 780 mmHg 82%
    14:00 +7°C° 0 mm 2 mps 780 mmHg 83%
    15:00 +7°C° 0 mm 2 mps 779 mmHg 84%
    16:00 +6°C° 0 mm 2 mps 779 mmHg 87%
    17:00 +6°C° 0 mm 2 mps 779 mmHg 91%
    18:00 +6°C° 0 mm 1 mps 779 mmHg 94%
    19:00 +6°C° 0 mm 1 mps 779 mmHg 95%
    20:00 +6°C° 0 mm 1 mps 779 mmHg 95%
    21:00 +4°C° 0 mm 2 mps 779 mmHg 96%
    22:00 +6°C° 0 mm 1 mps 779 mmHg 96%
    23:00 +6°C° 0 mm 1 mps 779 mmHg 96%

    22 January, Wednesday

    Time Temperature Precipitation Wind Pressure Humidity
    00:00 +6°C° 0 mm 1 mps 779 mmHg 96%
    01:00 +6°C° 0 mm 1 mps 779 mmHg 96%
    02:00 +6°C° 0 mm 1 mps 779 mmHg 96%
    03:00 +7°C° 0 mm 1 mps 779 mmHg 96%
    04:00 +7°C° 0 mm 1 mps 779 mmHg 96%
    05:00 +7°C° 0 mm 1 mps 779 mmHg 96%
    06:00 +7°C° 0 mm 1 mps 779 mmHg 96%
    07:00 +7°C° 0 mm 1 mps 779 mmHg 96%
    08:00 +7°C° 0 mm 1 mps 779 mmHg 97%
    09:00 +7°C° 0 mm 1 mps 779 mmHg 97%
    10:00 +8°C° 0 mm 1 mps 779 mmHg 95%
    11:00 +9°C° 0 mm 1 mps 779 mmHg 93%
    12:00 +10°C° 0 mm 1 mps 779 mmHg 91%
    13:00 +10°C° 0 mm 1 mps 779 mmHg 91%
    14:00 +10°C° 0 mm 1 mps 779 mmHg 91%
    15:00 +10°C° 0 mm 1 mps 778 mmHg 92%
    16:00 +8°C° 0 mm 0 mps 778 mmHg 93%
    17:00 +7°C° 0 mm 0 mps 778 mmHg 95%
    18:00 +7°C° 0 mm 0 mps 778 mmHg 96%
    19:00 +7°C° 0 mm 0 mps 778 mmHg 96%
    20:00 +7°C° 0 mm 0 mps 778 mmHg 96%
    21:00 +6°C° 0 mm 0 mps 778 mmHg 97%
    22:00 +6°C° 0 mm 0 mps 778 mmHg 97%
    23:00 +6°C° 0 mm 0 mps 778 mmHg 97%

    23 January, Thursday

    Time Temperature Precipitation Wind Pressure Humidity
    00:00 +6°C° 0 mm 0 mps 778 mmHg 97%
    01:00 +6°C° 0 mm 0 mps 777 mmHg 97%
    02:00 +5°C° 0 mm 0 mps 777 mmHg 97%
    03:00 +5°C° 0 mm 0 mps 777 mmHg 97%
    04:00 +5°C° 0 mm 0 mps 776 mmHg 96%
    05:00 +5°C° 0 mm 0 mps 776 mmHg 96%
    06:00 +5°C° 0 mm 0 mps 775 mmHg 96%
    07:00 +5°C° 0 mm 0 mps 775 mmHg 96%
    08:00 +5°C° 0 mm 0 mps 775 mmHg 96%
    09:00 +5°C° 0 mm 0 mps 775 mmHg 96%
    10:00 +6°C° 0 mm 0 mps 775 mmHg 94%
    11:00 +7°C° 0 mm 0 mps 774 mmHg 91%
    12:00 +7°C° 0 mm 0 mps 774 mmHg 89%
    13:00 +8°C° 0 mm 1 mps 773 mmHg 89%
    14:00 +8°C° 0 mm 1 mps 772 mmHg 89%
    15:00 +8°C° 0 mm 1 mps 772 mmHg 90%
    16:00 +8°C° 0 mm 1 mps 771 mmHg 91%
    17:00 +7°C° 0 mm 1 mps 771 mmHg 93%
    18:00 +7°C° 0 mm 1 mps 771 mmHg 94%
    19:00 +6°C° 0 mm 2 mps 770 mmHg 92%
    20:00 +6°C° 0 mm 2 mps 770 mmHg 90%
    21:00 +5°C° 0 mm 3 mps 770 mmHg 88%
    22:00 +4°C° 0 mm 3 mps 769 mmHg 89%
    23:00 +4°C° 0 mm 3 mps 769 mmHg 89%
    Show more